When you browse on this site, cookies collect data to enhance your experience and personalize the content and advertising you see.
Visit our Privacy Policy to learn more. By continuing to use the site, you agree to this use of cookies and data.
  • In Switzerland
  • List of Countries
  • For 7 days
  • Water Temperature
  • Satellite Maps
  • Weather Map
  • Weather Widgets
  • user-avatar
    Login

    Hourly Weather Escaldes-Engordany

    Today, 23 March, Saturday

    Time Temperature Precipitation Wind Pressure Humidity
    00:00 +4°C° 0 mm 1 mps 643 mmHg 76%
    01:00 +4°C° 0 mm 1 mps 643 mmHg 75%
    02:00 +4°C° 0 mm 1 mps 642 mmHg 74%
    03:00 +3°C° 0 mm 1 mps 642 mmHg 74%
    04:00 +3°C° 0 mm 1 mps 642 mmHg 73%
    05:00 +3°C° 0 mm 1 mps 642 mmHg 71%
    06:00 +3°C° 0 mm 1 mps 642 mmHg 70%
    07:00 +6°C° 0 mm 1 mps 643 mmHg 62%
    08:00 +8°C° 0 mm 0 mps 644 mmHg 53%
    09:00 +11°C° 0 mm 0 mps 645 mmHg 45%
    10:00 +12°C° 0 mm 0 mps 645 mmHg 42%
    11:00 +13°C° 0 mm 0 mps 646 mmHg 39%
    12:00 +15°C° 0 mm 1 mps 646 mmHg 35%
    13:00 +15°C° 0 mm 1 mps 645 mmHg 37%
    14:00 +15°C° 0 mm 1 mps 645 mmHg 38%
    15:00 +15°C° 0 mm 1 mps 644 mmHg 39%
    16:00 +13°C° 0 mm 1 mps 644 mmHg 47%
    17:00 +11°C° 0 mm 1 mps 643 mmHg 54%
    18:00 +9°C° 0 mm 1 mps 642 mmHg 62%
    19:00 +8°C° 0 mm 1 mps 642 mmHg 66%
    20:00 +7°C° 0 mm 1 mps 642 mmHg 70%
    21:00 +6°C° 0 mm 1 mps 642 mmHg 74%
    22:00 +5°C° 0 mm 1 mps 642 mmHg 74%
    23:00 +5°C° 0 mm 1 mps 642 mmHg 74%

    Tomorrow, 24 March, Sunday

    Time Temperature Precipitation Wind Pressure Humidity
    00:00 +5°C° 0 mm 1 mps 642 mmHg 74%
    01:00 +5°C° 0 mm 1 mps 641 mmHg 72%
    02:00 +5°C° 0 mm 1 mps 641 mmHg 71%
    03:00 +5°C° 0 mm 1 mps 641 mmHg 69%
    04:00 +5°C° 0 mm 1 mps 641 mmHg 68%
    05:00 +4°C° 0 mm 1 mps 641 mmHg 67%
    06:00 +4°C° 0 mm 1 mps 641 mmHg 66%
    07:00 +6°C° 0 mm 0 mps 642 mmHg 58%
    08:00 +9°C° 0 mm 0 mps 643 mmHg 50%
    09:00 +12°C° 0 mm 0 mps 644 mmHg 42%
    10:00 +13°C° 0 mm 0 mps 645 mmHg 40%
    11:00 +14°C° 0 mm 0 mps 645 mmHg 38%
    12:00 +16°C° 0 mm 1 mps 645 mmHg 36%
    13:00 +15°C° 0.1 mm 1 mps 644 mmHg 39%
    14:00 +14°C° 0.1 mm 1 mps 644 mmHg 43%
    15:00 +14°C° 0.1 mm 1 mps 643 mmHg 46%
    16:00 +12°C° 0.4 mm 1 mps 643 mmHg 55%
    17:00 +11°C° 0.4 mm 1 mps 642 mmHg 64%
    18:00 +9°C° 0.4 mm 1 mps 641 mmHg 73%
    19:00 +8°C° 0.1 mm 1 mps 641 mmHg 77%
    20:00 +7°C° 0.1 mm 1 mps 641 mmHg 82%
    21:00 +6°C° 0.1 mm 1 mps 641 mmHg 86%
    22:00 +6°C° 0 mm 1 mps 641 mmHg 88%
    23:00 +6°C° 0 mm 1 mps 641 mmHg 89%

    Day after tomorrow, 25 March, Monday

    Time Temperature Precipitation Wind Pressure Humidity
    00:00 +5°C° 0 mm 1 mps 641 mmHg 91%
    01:00 +5°C° 0 mm 1 mps 640 mmHg 92%
    02:00 +5°C° 0 mm 1 mps 640 mmHg 92%
    03:00 +4°C° 0 mm 1 mps 640 mmHg 93%
    04:00 +4°C° 0 mm 1 mps 640 mmHg 90%
    05:00 +4°C° 0 mm 1 mps 640 mmHg 88%
    06:00 +3°C° 0 mm 1 mps 639 mmHg 86%
    07:00 +6°C° 0 mm 1 mps 640 mmHg 75%
    08:00 +8°C° 0 mm 1 mps 641 mmHg 64%
    09:00 +10°C° 0 mm 1 mps 642 mmHg 53%
    10:00 +11°C° 0 mm 1 mps 642 mmHg 50%
    11:00 +12°C° 0 mm 2 mps 643 mmHg 46%
    12:00 +14°C° 0 mm 2 mps 643 mmHg 43%
    13:00 +13°C° 0 mm 2 mps 642 mmHg 48%
    14:00 +12°C° 0 mm 2 mps 641 mmHg 53%
    15:00 +10°C° 0 mm 2 mps 641 mmHg 59%
    16:00 +9°C° 0 mm 2 mps 640 mmHg 66%
    17:00 +8°C° 0 mm 2 mps 640 mmHg 73%
    18:00 +6°C° 0 mm 2 mps 639 mmHg 80%
    19:00 +5°C° 0 mm 2 mps 639 mmHg 81%
    20:00 +4°C° 0 mm 2 mps 639 mmHg 82%
    21:00 +4°C° 0 mm 2 mps 639 mmHg 83%
    22:00 +3°C° 0 mm 2 mps 639 mmHg 84%
    23:00 +2°C° 0 mm 2 mps 639 mmHg 85%

    26 March, Tuesday

    Time Temperature Precipitation Wind Pressure Humidity
    00:00 +1°C° 0 mm 2 mps 639 mmHg 86%
    01:00 0°C° 0 mm 3 mps 639 mmHg 85%
    02:00 0°C° 0 mm 3 mps 639 mmHg 85%
    03:00 0°C° 0 mm 3 mps 639 mmHg 85%
    04:00 -1°C° 0 mm 3 mps 639 mmHg 84%
    05:00 -1°C° 0 mm 3 mps 639 mmHg 83%
    06:00 -1°C° 0 mm 3 mps 639 mmHg 82%
    07:00 +1°C° 0 mm 3 mps 640 mmHg 65%
    08:00 +3°C° 0 mm 3 mps 641 mmHg 49%
    09:00 +5°C° 0 mm 3 mps 642 mmHg 32%
    10:00 +8°C° 0 mm 2 mps 643 mmHg 29%
    11:00 +10°C° 0 mm 2 mps 644 mmHg 26%
    12:00 +12°C° 0 mm 1 mps 644 mmHg 23%
    13:00 +12°C° 0 mm 1 mps 644 mmHg 26%
    14:00 +12°C° 0 mm 1 mps 644 mmHg 28%
    15:00 +12°C° 0 mm 1 mps 644 mmHg 31%
    16:00 +10°C° 0 mm 1 mps 643 mmHg 39%
    17:00 +7°C° 0 mm 1 mps 642 mmHg 48%
    18:00 +5°C° 0 mm 1 mps 642 mmHg 57%
    19:00 +4°C° 0 mm 1 mps 642 mmHg 62%
    20:00 +2°C° 0 mm 0 mps 642 mmHg 67%
    21:00 +1°C° 0 mm 0 mps 642 mmHg 72%
    22:00 +1°C° 0 mm 0 mps 642 mmHg 74%
    23:00 +1°C° 0 mm 0 mps 642 mmHg 76%

    27 March, Wednesday

    Time Temperature Precipitation Wind Pressure Humidity
    00:00 +1°C° 0 mm 0 mps 642 mmHg 79%
    01:00 +2°C° 0 mm 1 mps 642 mmHg 76%
    02:00 +2°C° 0 mm 1 mps 642 mmHg 74%
    03:00 +1°C° 0 mm 1 mps 642 mmHg 72%
    04:00 +1°C° 0 mm 1 mps 642 mmHg 66%
    05:00 +1°C° 0 mm 1 mps 642 mmHg 60%
    06:00 +1°C° 0 mm 1 mps 642 mmHg 54%
    07:00 +4°C° 0 mm 1 mps 643 mmHg 45%
    08:00 +7°C° 0 mm 1 mps 644 mmHg 36%
    09:00 +10°C° 0 mm 1 mps 645 mmHg 27%
    10:00 +11°C° 0 mm 1 mps 646 mmHg 26%
    11:00 +13°C° 0 mm 1 mps 646 mmHg 26%
    12:00 +14°C° 0 mm 1 mps 646 mmHg 25%
    13:00 +14°C° 0 mm 2 mps 646 mmHg 27%
    14:00 +13°C° 0 mm 2 mps 645 mmHg 29%
    15:00 +13°C° 0 mm 2 mps 644 mmHg 32%
    16:00 +11°C° 0 mm 1 mps 644 mmHg 41%
    17:00 +9°C° 0 mm 1 mps 643 mmHg 51%
    18:00 +7°C° 0 mm 1 mps 642 mmHg 60%
    19:00 +5°C° 0 mm 1 mps 642 mmHg 64%
    20:00 +4°C° 0 mm 1 mps 642 mmHg 68%
    21:00 +3°C° 0 mm 1 mps 642 mmHg 73%
    22:00 +3°C° 0 mm 1 mps 642 mmHg 69%
    23:00 +3°C° 0 mm 1 mps 642 mmHg 66%

    28 March, Thursday

    Time Temperature Precipitation Wind Pressure Humidity
    00:00 +3°C° 0 mm 1 mps 641 mmHg 62%
    01:00 +3°C° 0 mm 1 mps 641 mmHg 58%
    02:00 +3°C° 0 mm 1 mps 641 mmHg 54%
    03:00 +3°C° 0 mm 1 mps 641 mmHg 50%
    04:00 +2°C° 0 mm 1 mps 641 mmHg 50%
    05:00 +2°C° 0 mm 1 mps 641 mmHg 50%
    06:00 +2°C° 0 mm 1 mps 641 mmHg 50%
    07:00 +5°C° 0 mm 1 mps 642 mmHg 45%
    08:00 +8°C° 0 mm 1 mps 643 mmHg 40%
    09:00 +10°C° 0 mm 1 mps 644 mmHg 35%
    10:00 +12°C° 0 mm 1 mps 645 mmHg 34%
    11:00 +13°C° 0 mm 1 mps 645 mmHg 33%
    12:00 +14°C° 0 mm 1 mps 645 mmHg 32%
    13:00 +13°C° 0 mm 1 mps 645 mmHg 36%
    14:00 +13°C° 0 mm 1 mps 644 mmHg 39%
    15:00 +12°C° 0 mm 1 mps 644 mmHg 43%
    16:00 +10°C° 0 mm 1 mps 643 mmHg 52%
    17:00 +9°C° 0 mm 1 mps 643 mmHg 60%
    18:00 +7°C° 0 mm 1 mps 642 mmHg 69%
    19:00 +6°C° 0 mm 1 mps 643 mmHg 73%
    20:00 +6°C° 0 mm 1 mps 643 mmHg 77%
    21:00 +4°C° 0 mm 2 mps 643 mmHg 81%
    22:00 +3°C° 0 mm 2 mps 643 mmHg 82%
    23:00 +3°C° 0 mm 2 mps 643 mmHg 83%
    Show more